Date_Time,Julian_Date,Latitude,Longitude,Instrument_Depth,U,V,Speed,Direction
(yyyy-mm-dd hh:mn:ss UTC),(JD),(+ deg. North),(+ deg. East),(m),(cm/s),(cm/s),(cm/s),(deg True)
1982-10-18 20:30:00 UTC,2445261.354167,28.7317,-95.2428,0109,-11.82,-9.23,15.0000,232.0000
1982-10-18 21:00:00 UTC,2445261.375000,28.7317,-95.2428,0109,-13.71,-8.24,16.0000,239.0000
1982-10-18 21:30:00 UTC,2445261.395833,28.7317,-95.2428,0109,-15.28,-7.45,17.0000,244.0000
1982-10-18 22:00:00 UTC,2445261.416667,28.7317,-95.2428,0109,-15.87,-6.09,17.0000,249.0000
1982-10-18 22:30:00 UTC,2445261.437500,28.7317,-95.2428,0109,-17.02,-5.86,18.0000,251.0000
1982-10-18 23:00:00 UTC,2445261.458333,28.7317,-95.2428,0109,-17.96,-6.19,19.0000,251.0000
1982-10-18 23:30:00 UTC,2445261.479167,28.7317,-95.2428,0109,-18.91,-6.51,20.0000,251.0000
1982-10-19 00:00:00 UTC,2445261.500000,28.7317,-95.2428,0109,-19.02,-6.18,20.0000,252.0000
1982-10-19 00:30:00 UTC,2445261.520833,28.7317,-95.2428,0109,-19.13,-5.85,20.0000,253.0000
1982-10-19 01:00:00 UTC,2445261.541667,28.7317,-95.2428,0109,-18.35,-4.92,19.0000,255.0000
1982-10-19 01:30:00 UTC,2445261.562500,28.7317,-95.2428,0109,-18.65,-3.63,19.0000,259.0000
1982-10-19 02:00:00 UTC,2445261.583333,28.7317,-95.2428,0109,-17.73,-3.13,18.0000,260.0000
1982-10-19 02:30:00 UTC,2445261.604167,28.7317,-95.2428,0109,-16.69,-3.24,17.0000,259.0000
1982-10-19 03:00:00 UTC,2445261.625000,28.7317,-95.2428,0109,-15.71,-3.05,16.0000,259.0000
1982-10-19 03:30:00 UTC,2445261.645833,28.7317,-95.2428,0109,-15.76,-2.78,16.0000,260.0000
1982-10-19 04:00:00 UTC,2445261.666667,28.7317,-95.2428,0109,-15.88,-1.95,16.0000,263.0000
1982-10-19 04:30:00 UTC,2445261.687500,28.7317,-95.2428,0109,-14.92,-1.57,15.0000,264.0000
1982-10-19 05:00:00 UTC,2445261.708333,28.7317,-95.2428,0109,-12.84,-2.03,13.0000,261.0000
1982-10-19 05:30:00 UTC,2445261.729167,28.7317,-95.2428,0109,-12.80,-2.26,13.0000,260.0000
1982-10-19 06:00:00 UTC,2445261.750000,28.7317,-95.2428,0109,-12.72,-2.70,13.0000,258.0000
1982-10-19 06:30:00 UTC,2445261.770833,28.7317,-95.2428,0109,-12.50,-3.58,13.0000,254.0000
1982-10-19 07:00:00 UTC,2445261.791667,28.7317,-95.2428,0109,-12.14,-4.66,13.0000,249.0000
1982-10-19 07:30:00 UTC,2445261.812500,28.7317,-95.2428,0109,-10.60,-5.63,12.0000,242.0000
1982-10-19 08:00:00 UTC,2445261.833333,28.7317,-95.2428,0109,-9.46,-7.39,12.0000,232.0000
1982-10-19 08:30:00 UTC,2445261.854167,28.7317,-95.2428,0109,-9.03,-9.35,13.0000,224.0000
1982-10-19 09:00:00 UTC,2445261.875000,28.7317,-95.2428,0109,-9.37,-10.40,14.0000,222.0000
1982-10-19 09:30:00 UTC,2445261.895833,28.7317,-95.2428,0109,-9.90,-9.90,14.0000,225.0000
1982-10-19 10:00:00 UTC,2445261.916667,28.7317,-95.2428,0109,-10.61,-10.61,15.0000,225.0000
1982-10-19 10:30:00 UTC,2445261.937500,28.7317,-95.2428,0109,-12.50,-12.95,18.0000,224.0000
1982-10-19 11:00:00 UTC,2445261.958333,28.7317,-95.2428,0109,-15.28,-15.83,22.0000,224.0000
1982-10-19 11:30:00 UTC,2445261.979167,28.7317,-95.2428,0109,-18.38,-18.38,26.0000,225.0000
1982-10-19 12:00:00 UTC,2445262.000000,28.7317,-95.2428,0109,-20.86,-20.15,29.0000,226.0000
1982-10-19 12:30:00 UTC,2445262.020833,28.7317,-95.2428,0109,-22.30,-21.53,31.0000,226.0000
1982-10-19 13:00:00 UTC,2445262.041667,28.7317,-95.2428,0109,-23.74,-22.92,33.0000,226.0000
1982-10-19 13:30:00 UTC,2445262.062500,28.7317,-95.2428,0109,-25.18,-24.31,35.0000,226.0000
1982-10-19 14:00:00 UTC,2445262.083333,28.7317,-95.2428,0109,-25.90,-25.01,36.0000,226.0000
1982-10-19 14:30:00 UTC,2445262.104167,28.7317,-95.2428,0109,-27.50,-24.76,37.0000,228.0000
1982-10-19 15:00:00 UTC,2445262.125000,28.7317,-95.2428,0109,-28.75,-21.67,36.0000,233.0000
1982-10-19 15:30:00 UTC,2445262.145833,28.7317,-95.2428,0109,-28.67,-20.08,35.0000,235.0000
1982-10-19 16:00:00 UTC,2445262.166667,28.7317,-95.2428,0109,-28.51,-18.52,34.0000,237.0000
1982-10-19 16:30:00 UTC,2445262.187500,28.7317,-95.2428,0109,-28.29,-17.00,33.0000,239.0000
1982-10-19 17:00:00 UTC,2445262.208333,28.7317,-95.2428,0109,-29.14,-15.49,33.0000,242.0000
1982-10-19 17:30:00 UTC,2445262.229167,28.7317,-95.2428,0109,-29.00,-13.52,32.0000,245.0000
1982-10-19 18:00:00 UTC,2445262.250000,28.7317,-95.2428,0109,-27.41,-12.20,30.0000,246.0000
1982-10-19 18:30:00 UTC,2445262.270833,28.7317,-95.2428,0109,-26.49,-11.80,29.0000,246.0000
1982-10-19 19:00:00 UTC,2445262.291667,28.7317,-95.2428,0109,-25.21,-9.68,27.0000,249.0000
1982-10-19 19:30:00 UTC,2445262.312500,28.7317,-95.2428,0109,-24.26,-6.05,25.0000,256.0000
1982-10-19 20:00:00 UTC,2445262.333333,28.7317,-95.2428,0109,-23.77,-3.34,24.0000,262.0000
1982-10-19 20:30:00 UTC,2445262.354167,28.7317,-95.2428,0109,-23.82,-2.92,24.0000,263.0000
1982-10-19 21:00:00 UTC,2445262.375000,28.7317,-95.2428,0109,-22.87,-2.40,23.0000,264.0000
1982-10-19 21:30:00 UTC,2445262.395833,28.7317,-95.2428,0109,-21.95,-1.53,22.0000,266.0000
1982-10-19 22:00:00 UTC,2445262.416667,28.7317,-95.2428,0109,-20.95,-1.46,21.0000,266.0000
1982-10-19 22:30:00 UTC,2445262.437500,28.7317,-95.2428,0109,-19.92,-1.74,20.0000,265.0000
1982-10-19 23:00:00 UTC,2445262.458333,28.7317,-95.2428,0109,-18.90,-1.99,19.0000,264.0000
1982-10-19 23:30:00 UTC,2445262.479167,28.7317,-95.2428,0109,-18.97,-0.99,19.0000,267.0000
1982-10-20 00:00:00 UTC,2445262.500000,28.7317,-95.2428,0109,-19.00,-0.33,19.0000,269.0000
1982-10-20 00:30:00 UTC,2445262.520833,28.7317,-95.2428,0109,-18.00,-0.31,18.0000,269.0000
1982-10-20 01:00:00 UTC,2445262.541667,28.7317,-95.2428,0109,-15.98,-0.84,16.0000,267.0000
1982-10-20 01:30:00 UTC,2445262.562500,28.7317,-95.2428,0109,-14.96,-1.05,15.0000,266.0000
1982-10-20 02:00:00 UTC,2445262.583333,28.7317,-95.2428,0109,-12.97,-0.91,13.0000,266.0000
1982-10-20 02:30:00 UTC,2445262.604167,28.7317,-95.2428,0109,-11.95,-1.05,12.0000,265.0000
1982-10-20 03:00:00 UTC,2445262.625000,28.7317,-95.2428,0109,-10.92,-1.34,11.0000,263.0000
1982-10-20 03:30:00 UTC,2445262.645833,28.7317,-95.2428,0109,-9.96,-0.87,10.0000,265.0000
1982-10-20 04:00:00 UTC,2445262.666667,28.7317,-95.2428,0109,-10.00,0.17,10.0000,271.0000
1982-10-20 04:30:00 UTC,2445262.687500,28.7317,-95.2428,0109,-9.93,1.22,10.0000,277.0000
1982-10-20 05:00:00 UTC,2445262.708333,28.7317,-95.2428,0109,-8.89,1.41,9.0000,279.0000
1982-10-20 05:30:00 UTC,2445262.729167,28.7317,-95.2428,0109,-8.89,1.41,9.0000,279.0000
1982-10-20 06:00:00 UTC,2445262.750000,28.7317,-95.2428,0109,-9.88,1.56,10.0000,279.0000
1982-10-20 06:30:00 UTC,2445262.770833,28.7317,-95.2428,0109,-10.94,1.15,11.0000,276.0000
1982-10-20 07:00:00 UTC,2445262.791667,28.7317,-95.2428,0109,-10.00,-0.00,10.0000,270.0000
1982-10-20 07:30:00 UTC,2445262.812500,28.7317,-95.2428,0109,-9.99,-0.52,10.0000,267.0000
1982-10-20 08:00:00 UTC,2445262.833333,28.7317,-95.2428,0109,-10.00,-0.17,10.0000,269.0000
1982-10-20 08:30:00 UTC,2445262.854167,28.7317,-95.2428,0109,-10.98,-0.58,11.0000,267.0000
1982-10-20 09:00:00 UTC,2445262.875000,28.7317,-95.2428,0109,-9.90,-1.39,10.0000,262.0000
1982-10-20 09:30:00 UTC,2445262.895833,28.7317,-95.2428,0109,-10.72,-2.47,11.0000,257.0000
1982-10-20 10:00:00 UTC,2445262.916667,28.7317,-95.2428,0109,-11.41,-3.71,12.0000,252.0000
1982-10-20 10:30:00 UTC,2445262.937500,28.7317,-95.2428,0109,-12.14,-4.66,13.0000,249.0000
1982-10-20 11:00:00 UTC,2445262.958333,28.7317,-95.2428,0109,-13.70,-6.10,15.0000,246.0000
1982-10-20 11:30:00 UTC,2445262.979167,28.7317,-95.2428,0109,-15.28,-7.45,17.0000,244.0000
1982-10-20 12:00:00 UTC,2445263.000000,28.7317,-95.2428,0109,-15.15,-7.72,17.0000,243.0000
1982-10-20 12:30:00 UTC,2445263.020833,28.7317,-95.2428,0109,-14.73,-6.25,16.0000,247.0000
1982-10-20 13:00:00 UTC,2445263.041667,28.7317,-95.2428,0109,-15.30,-4.68,16.0000,253.0000
1982-10-20 13:30:00 UTC,2445263.062500,28.7317,-95.2428,0109,-17.74,-6.81,19.0000,249.0000
1982-10-20 14:00:00 UTC,2445263.083333,28.7317,-95.2428,0109,-21.38,-10.90,24.0000,243.0000
1982-10-20 14:30:00 UTC,2445263.104167,28.7317,-95.2428,0109,-24.25,-14.00,28.0000,240.0000
1982-10-20 15:00:00 UTC,2445263.125000,28.7317,-95.2428,0109,-26.57,-15.97,31.0000,239.0000
1982-10-20 15:30:00 UTC,2445263.145833,28.7317,-95.2428,0109,-29.44,-17.00,34.0000,240.0000
1982-10-20 16:00:00 UTC,2445263.166667,28.7317,-95.2428,0109,-30.02,-15.96,34.0000,242.0000
1982-10-20 16:30:00 UTC,2445263.187500,28.7317,-95.2428,0109,-28.51,-14.53,32.0000,243.0000
1982-10-20 17:00:00 UTC,2445263.208333,28.7317,-95.2428,0109,-28.32,-12.61,31.0000,246.0000
1982-10-20 17:30:00 UTC,2445263.229167,28.7317,-95.2428,0109,-28.19,-10.26,30.0000,250.0000
1982-10-20 18:00:00 UTC,2445263.250000,28.7317,-95.2428,0109,-28.84,-8.27,30.0000,254.0000
1982-10-20 18:30:00 UTC,2445263.270833,28.7317,-95.2428,0109,-28.37,-6.03,29.0000,258.0000
1982-10-20 19:00:00 UTC,2445263.291667,28.7317,-95.2428,0109,-25.60,-4.51,26.0000,260.0000
1982-10-20 19:30:00 UTC,2445263.312500,28.7317,-95.2428,0109,-22.83,-2.80,23.0000,263.0000
1982-10-20 20:00:00 UTC,2445263.333333,28.7317,-95.2428,0109,-21.88,-2.30,22.0000,264.0000
1982-10-20 20:30:00 UTC,2445263.354167,28.7317,-95.2428,0109,-20.92,-1.83,21.0000,265.0000
1982-10-20 21:00:00 UTC,2445263.375000,28.7317,-95.2428,0109,-18.93,-1.66,19.0000,265.0000
1982-10-20 21:30:00 UTC,2445263.395833,28.7317,-95.2428,0109,-15.96,-1.12,16.0000,266.0000
1982-10-20 22:00:00 UTC,2445263.416667,28.7317,-95.2428,0109,-13.99,-0.49,14.0000,268.0000
1982-10-20 22:30:00 UTC,2445263.437500,28.7317,-95.2428,0109,-12.99,-0.45,13.0000,268.0000
1982-10-20 23:00:00 UTC,2445263.458333,28.7317,-95.2428,0109,-11.97,-0.84,12.0000,266.0000
1982-10-20 23:30:00 UTC,2445263.479167,28.7317,-95.2428,0109,-11.93,-1.25,12.0000,264.0000
1982-10-21 00:00:00 UTC,2445263.500000,28.7317,-95.2428,0109,-13.90,-1.71,14.0000,263.0000
1982-10-21 00:30:00 UTC,2445263.520833,28.7317,-95.2428,0109,-13.83,-2.19,14.0000,261.0000
1982-10-21 01:00:00 UTC,2445263.541667,28.7317,-95.2428,0109,-12.50,-3.58,13.0000,254.0000
1982-10-21 01:30:00 UTC,2445263.562500,28.7317,-95.2428,0109,-13.37,-6.81,15.0000,243.0000
1982-10-21 02:00:00 UTC,2445263.583333,28.7317,-95.2428,0109,-13.40,-10.47,17.0000,232.0000
1982-10-21 02:30:00 UTC,2445263.604167,28.7317,-95.2428,0109,-13.90,-12.96,19.0000,227.0000
1982-10-21 03:00:00 UTC,2445263.625000,28.7317,-95.2428,0109,-15.32,-12.86,20.0000,230.0000
1982-10-21 03:30:00 UTC,2445263.645833,28.7317,-95.2428,0109,-15.93,-10.35,19.0000,237.0000
1982-10-21 04:00:00 UTC,2445263.666667,28.7317,-95.2428,0109,-16.96,-10.60,20.0000,238.0000
1982-10-21 04:30:00 UTC,2445263.687500,28.7317,-95.2428,0109,-16.58,-11.18,20.0000,236.0000
1982-10-21 05:00:00 UTC,2445263.708333,28.7317,-95.2428,0109,-17.20,-12.05,21.0000,235.0000
1982-10-21 05:30:00 UTC,2445263.729167,28.7317,-95.2428,0109,-18.45,-11.98,22.0000,237.0000
1982-10-21 06:00:00 UTC,2445263.750000,28.7317,-95.2428,0109,-19.05,-11.00,22.0000,240.0000
1982-10-21 06:30:00 UTC,2445263.770833,28.7317,-95.2428,0109,-19.05,-11.00,22.0000,240.0000
1982-10-21 07:00:00 UTC,2445263.791667,28.7317,-95.2428,0109,-19.51,-12.19,23.0000,238.0000
1982-10-21 07:30:00 UTC,2445263.812500,28.7317,-95.2428,0109,-20.13,-13.07,24.0000,237.0000
1982-10-21 08:00:00 UTC,2445263.833333,28.7317,-95.2428,0109,-19.90,-13.42,24.0000,236.0000
1982-10-21 08:30:00 UTC,2445263.854167,28.7317,-95.2428,0109,-19.66,-13.77,24.0000,235.0000
1982-10-21 09:00:00 UTC,2445263.875000,28.7317,-95.2428,0109,-20.23,-14.69,25.0000,234.0000
1982-10-21 09:30:00 UTC,2445263.895833,28.7317,-95.2428,0109,-20.48,-14.34,25.0000,235.0000
1982-10-21 10:00:00 UTC,2445263.916667,28.7317,-95.2428,0109,-21.03,-15.28,26.0000,234.0000
1982-10-21 10:30:00 UTC,2445263.937500,28.7317,-95.2428,0109,-21.56,-16.25,27.0000,233.0000
1982-10-21 11:00:00 UTC,2445263.958333,28.7317,-95.2428,0109,-21.28,-16.62,27.0000,232.0000
1982-10-21 11:30:00 UTC,2445263.979167,28.7317,-95.2428,0109,-21.45,-18.00,28.0000,230.0000
1982-10-21 12:00:00 UTC,2445264.000000,28.7317,-95.2428,0109,-21.55,-19.40,29.0000,228.0000
1982-10-21 12:30:00 UTC,2445264.020833,28.7317,-95.2428,0109,-21.55,-19.40,29.0000,228.0000
1982-10-21 13:00:00 UTC,2445264.041667,28.7317,-95.2428,0109,-21.89,-19.03,29.0000,229.0000
1982-10-21 13:30:00 UTC,2445264.062500,28.7317,-95.2428,0109,-22.64,-19.68,30.0000,229.0000
1982-10-21 14:00:00 UTC,2445264.083333,28.7317,-95.2428,0109,-23.75,-19.93,31.0000,230.0000
1982-10-21 14:30:00 UTC,2445264.104167,28.7317,-95.2428,0109,-23.75,-19.93,31.0000,230.0000
1982-10-21 15:00:00 UTC,2445264.125000,28.7317,-95.2428,0109,-23.75,-19.93,31.0000,230.0000
1982-10-21 15:30:00 UTC,2445264.145833,28.7317,-95.2428,0109,-24.09,-19.51,31.0000,231.0000
1982-10-21 16:00:00 UTC,2445264.166667,28.7317,-95.2428,0109,-22.85,-17.85,29.0000,232.0000
1982-10-21 16:30:00 UTC,2445264.187500,28.7317,-95.2428,0109,-21.56,-16.25,27.0000,233.0000
1982-10-21 17:00:00 UTC,2445264.208333,28.7317,-95.2428,0109,-22.64,-14.71,27.0000,237.0000
1982-10-21 17:30:00 UTC,2445264.229167,28.7317,-95.2428,0109,-26.24,-14.54,30.0000,241.0000
1982-10-21 18:00:00 UTC,2445264.250000,28.7317,-95.2428,0109,-26.73,-13.62,30.0000,243.0000
1982-10-21 18:30:00 UTC,2445264.270833,28.7317,-95.2428,0109,-25.17,-12.27,28.0000,244.0000
1982-10-21 19:00:00 UTC,2445264.291667,28.7317,-95.2428,0109,-23.37,-11.40,26.0000,244.0000
1982-10-21 19:30:00 UTC,2445264.312500,28.7317,-95.2428,0109,-20.67,-10.08,23.0000,244.0000
1982-10-21 20:00:00 UTC,2445264.333333,28.7317,-95.2428,0109,-20.67,-10.08,23.0000,244.0000
1982-10-21 20:30:00 UTC,2445264.354167,28.7317,-95.2428,0109,-20.49,-10.44,23.0000,243.0000
1982-10-21 21:00:00 UTC,2445264.375000,28.7317,-95.2428,0109,-19.60,-9.99,22.0000,243.0000
1982-10-21 21:30:00 UTC,2445264.395833,28.7317,-95.2428,0109,-17.82,-9.08,20.0000,243.0000
1982-10-21 22:00:00 UTC,2445264.416667,28.7317,-95.2428,0109,-17.49,-9.70,20.0000,241.0000
1982-10-21 22:30:00 UTC,2445264.437500,28.7317,-95.2428,0109,-17.81,-11.13,21.0000,238.0000
1982-10-21 23:00:00 UTC,2445264.458333,28.7317,-95.2428,0109,-17.20,-12.05,21.0000,235.0000
1982-10-21 23:30:00 UTC,2445264.479167,28.7317,-95.2428,0109,-18.02,-12.62,22.0000,235.0000
1982-10-22 00:00:00 UTC,2445264.500000,28.7317,-95.2428,0109,-18.45,-11.98,22.0000,237.0000
1982-10-22 00:30:00 UTC,2445264.520833,28.7317,-95.2428,0109,-15.56,-10.90,19.0000,235.0000
1982-10-22 01:00:00 UTC,2445264.541667,28.7317,-95.2428,0109,-12.78,-9.63,16.0000,233.0000
1982-10-22 01:30:00 UTC,2445264.562500,28.7317,-95.2428,0109,-12.24,-6.79,14.0000,241.0000
1982-10-22 02:00:00 UTC,2445264.583333,28.7317,-95.2428,0109,-14.62,-6.51,16.0000,246.0000
1982-10-22 02:30:00 UTC,2445264.604167,28.7317,-95.2428,0109,-15.59,-9.00,18.0000,240.0000
1982-10-22 03:00:00 UTC,2445264.625000,28.7317,-95.2428,0109,-15.26,-9.54,18.0000,238.0000
1982-10-22 03:30:00 UTC,2445264.645833,28.7317,-95.2428,0109,-16.29,-9.79,19.0000,239.0000
1982-10-22 04:00:00 UTC,2445264.666667,28.7317,-95.2428,0109,-16.62,-9.21,19.0000,241.0000
1982-10-22 04:30:00 UTC,2445264.687500,28.7317,-95.2428,0109,-17.49,-9.70,20.0000,241.0000
1982-10-22 05:00:00 UTC,2445264.708333,28.7317,-95.2428,0109,-18.00,-10.82,21.0000,239.0000
1982-10-22 05:30:00 UTC,2445264.729167,28.7317,-95.2428,0109,-17.61,-11.44,21.0000,237.0000
1982-10-22 06:00:00 UTC,2445264.750000,28.7317,-95.2428,0109,-18.45,-11.98,22.0000,237.0000
1982-10-22 06:30:00 UTC,2445264.770833,28.7317,-95.2428,0109,-19.90,-13.42,24.0000,236.0000
1982-10-22 07:00:00 UTC,2445264.791667,28.7317,-95.2428,0109,-20.73,-13.98,25.0000,236.0000
1982-10-22 07:30:00 UTC,2445264.812500,28.7317,-95.2428,0109,-22.05,-13.78,26.0000,238.0000
1982-10-22 08:00:00 UTC,2445264.833333,28.7317,-95.2428,0109,-22.29,-13.39,26.0000,239.0000
1982-10-22 08:30:00 UTC,2445264.854167,28.7317,-95.2428,0109,-23.14,-13.91,27.0000,239.0000
1982-10-22 09:00:00 UTC,2445264.875000,28.7317,-95.2428,0109,-23.75,-14.84,28.0000,238.0000
1982-10-22 09:30:00 UTC,2445264.895833,28.7317,-95.2428,0109,-23.75,-14.84,28.0000,238.0000
1982-10-22 10:00:00 UTC,2445264.916667,28.7317,-95.2428,0109,-23.75,-14.84,28.0000,238.0000
1982-10-22 10:30:00 UTC,2445264.937500,28.7317,-95.2428,0109,-24.59,-15.37,29.0000,238.0000
1982-10-22 11:00:00 UTC,2445264.958333,28.7317,-95.2428,0109,-26.29,-16.43,31.0000,238.0000
1982-10-22 11:30:00 UTC,2445264.979167,28.7317,-95.2428,0109,-27.43,-16.48,32.0000,239.0000
1982-10-22 12:00:00 UTC,2445265.000000,28.7317,-95.2428,0109,-27.43,-16.48,32.0000,239.0000
1982-10-22 12:30:00 UTC,2445265.020833,28.7317,-95.2428,0109,-27.36,-18.45,33.0000,236.0000
1982-10-22 13:00:00 UTC,2445265.041667,28.7317,-95.2428,0109,-27.51,-19.98,34.0000,234.0000
1982-10-22 13:30:00 UTC,2445265.062500,28.7317,-95.2428,0109,-27.51,-19.98,34.0000,234.0000
1982-10-22 14:00:00 UTC,2445265.083333,28.7317,-95.2428,0109,-27.51,-19.98,34.0000,234.0000
1982-10-22 14:30:00 UTC,2445265.104167,28.7317,-95.2428,0109,-27.51,-19.98,34.0000,234.0000
1982-10-22 15:00:00 UTC,2445265.125000,28.7317,-95.2428,0109,-27.95,-21.06,35.0000,233.0000
1982-10-22 15:30:00 UTC,2445265.145833,28.7317,-95.2428,0109,-27.95,-21.06,35.0000,233.0000
1982-10-22 16:00:00 UTC,2445265.166667,28.7317,-95.2428,0109,-27.58,-21.55,35.0000,232.0000
1982-10-22 16:30:00 UTC,2445265.187500,28.7317,-95.2428,0109,-28.75,-21.67,36.0000,233.0000
1982-10-22 17:00:00 UTC,2445265.208333,28.7317,-95.2428,0109,-29.49,-20.65,36.0000,235.0000
1982-10-22 17:30:00 UTC,2445265.229167,28.7317,-95.2428,0109,-29.02,-19.57,35.0000,236.0000
1982-10-22 18:00:00 UTC,2445265.250000,28.7317,-95.2428,0109,-27.36,-18.45,33.0000,236.0000
1982-10-22 18:30:00 UTC,2445265.270833,28.7317,-95.2428,0109,-26.00,-16.88,31.0000,237.0000
1982-10-22 19:00:00 UTC,2445265.291667,28.7317,-95.2428,0109,-25.16,-16.34,30.0000,237.0000
1982-10-22 19:30:00 UTC,2445265.312500,28.7317,-95.2428,0109,-24.59,-15.37,29.0000,238.0000
1982-10-22 20:00:00 UTC,2445265.333333,28.7317,-95.2428,0109,-23.75,-14.84,28.0000,238.0000
1982-10-22 20:30:00 UTC,2445265.354167,28.7317,-95.2428,0109,-22.90,-14.31,27.0000,238.0000
1982-10-22 21:00:00 UTC,2445265.375000,28.7317,-95.2428,0109,-21.43,-12.88,25.0000,239.0000
1982-10-22 21:30:00 UTC,2445265.395833,28.7317,-95.2428,0109,-20.31,-10.80,23.0000,242.0000
1982-10-22 22:00:00 UTC,2445265.416667,28.7317,-95.2428,0109,-18.87,-9.21,21.0000,244.0000
1982-10-22 22:30:00 UTC,2445265.437500,28.7317,-95.2428,0109,-17.98,-8.77,20.0000,244.0000
1982-10-22 23:00:00 UTC,2445265.458333,28.7317,-95.2428,0109,-17.98,-8.77,20.0000,244.0000
1982-10-22 23:30:00 UTC,2445265.479167,28.7317,-95.2428,0109,-17.08,-8.33,19.0000,244.0000
1982-10-23 00:00:00 UTC,2445265.500000,28.7317,-95.2428,0109,-14.38,-7.01,16.0000,244.0000
1982-10-23 00:30:00 UTC,2445265.520833,28.7317,-95.2428,0109,-12.98,-5.24,14.0000,248.0000
1982-10-23 01:00:00 UTC,2445265.541667,28.7317,-95.2428,0109,-12.36,-4.02,13.0000,252.0000
1982-10-23 01:30:00 UTC,2445265.562500,28.7317,-95.2428,0109,-11.54,-3.31,12.0000,254.0000
1982-10-23 02:00:00 UTC,2445265.583333,28.7317,-95.2428,0109,-11.54,-3.31,12.0000,254.0000
1982-10-23 02:30:00 UTC,2445265.604167,28.7317,-95.2428,0109,-11.48,-3.51,12.0000,253.0000
1982-10-23 03:00:00 UTC,2445265.625000,28.7317,-95.2428,0109,-11.41,-3.71,12.0000,252.0000
1982-10-23 03:30:00 UTC,2445265.645833,28.7317,-95.2428,0109,-11.41,-3.71,12.0000,252.0000
1982-10-23 04:00:00 UTC,2445265.666667,28.7317,-95.2428,0109,-11.28,-4.10,12.0000,250.0000
1982-10-23 04:30:00 UTC,2445265.687500,28.7317,-95.2428,0109,-10.79,-5.26,12.0000,244.0000
1982-10-23 05:00:00 UTC,2445265.708333,28.7317,-95.2428,0109,-11.74,-7.62,14.0000,237.0000
1982-10-23 05:30:00 UTC,2445265.729167,28.7317,-95.2428,0109,-13.93,-9.75,17.0000,235.0000
1982-10-23 06:00:00 UTC,2445265.750000,28.7317,-95.2428,0109,-15.75,-10.62,19.0000,236.0000
1982-10-23 06:30:00 UTC,2445265.770833,28.7317,-95.2428,0109,-15.37,-11.17,19.0000,234.0000
1982-10-23 07:00:00 UTC,2445265.791667,28.7317,-95.2428,0109,-15.76,-12.31,20.0000,232.0000
1982-10-23 07:30:00 UTC,2445265.812500,28.7317,-95.2428,0109,-16.09,-13.50,21.0000,230.0000
1982-10-23 08:00:00 UTC,2445265.833333,28.7317,-95.2428,0109,-17.10,-13.85,22.0000,231.0000
1982-10-23 08:30:00 UTC,2445265.854167,28.7317,-95.2428,0109,-17.62,-14.78,23.0000,230.0000
1982-10-23 09:00:00 UTC,2445265.875000,28.7317,-95.2428,0109,-16.54,-15.98,23.0000,226.0000
1982-10-23 09:30:00 UTC,2445265.895833,28.7317,-95.2428,0109,-17.55,-16.37,24.0000,227.0000
1982-10-23 10:00:00 UTC,2445265.916667,28.7317,-95.2428,0109,-19.43,-15.73,25.0000,231.0000
1982-10-23 10:30:00 UTC,2445265.937500,28.7317,-95.2428,0109,-20.23,-14.69,25.0000,234.0000
1982-10-23 11:00:00 UTC,2445265.958333,28.7317,-95.2428,0109,-19.97,-15.05,25.0000,233.0000
1982-10-23 11:30:00 UTC,2445265.979167,28.7317,-95.2428,0109,-19.15,-16.07,25.0000,230.0000
1982-10-23 12:00:00 UTC,2445266.000000,28.7317,-95.2428,0109,-19.75,-18.41,27.0000,227.0000
1982-10-23 12:30:00 UTC,2445266.020833,28.7317,-95.2428,0109,-21.45,-18.00,28.0000,230.0000
1982-10-23 13:00:00 UTC,2445266.041667,28.7317,-95.2428,0109,-22.36,-16.85,28.0000,233.0000
1982-10-23 13:30:00 UTC,2445266.062500,28.7317,-95.2428,0109,-21.30,-14.91,26.0000,235.0000
1982-10-23 14:00:00 UTC,2445266.083333,28.7317,-95.2428,0109,-21.30,-14.91,26.0000,235.0000
1982-10-23 14:30:00 UTC,2445266.104167,28.7317,-95.2428,0109,-21.30,-14.91,26.0000,235.0000
1982-10-23 15:00:00 UTC,2445266.125000,28.7317,-95.2428,0109,-22.12,-15.49,27.0000,235.0000
1982-10-23 15:30:00 UTC,2445266.145833,28.7317,-95.2428,0109,-23.46,-17.05,29.0000,234.0000
1982-10-23 16:00:00 UTC,2445266.166667,28.7317,-95.2428,0109,-24.27,-17.63,30.0000,234.0000
1982-10-23 16:30:00 UTC,2445266.187500,28.7317,-95.2428,0109,-25.08,-18.22,31.0000,234.0000
1982-10-23 17:00:00 UTC,2445266.208333,28.7317,-95.2428,0109,-25.89,-18.81,32.0000,234.0000
1982-10-23 17:30:00 UTC,2445266.229167,28.7317,-95.2428,0109,-24.76,-18.66,31.0000,233.0000
1982-10-23 18:00:00 UTC,2445266.250000,28.7317,-95.2428,0109,-24.27,-17.63,30.0000,234.0000
1982-10-23 18:30:00 UTC,2445266.270833,28.7317,-95.2428,0109,-25.89,-18.81,32.0000,234.0000
1982-10-23 19:00:00 UTC,2445266.291667,28.7317,-95.2428,0109,-27.68,-17.97,33.0000,237.0000
1982-10-23 19:30:00 UTC,2445266.312500,28.7317,-95.2428,0109,-27.11,-15.03,31.0000,241.0000
1982-10-23 20:00:00 UTC,2445266.333333,28.7317,-95.2428,0109,-25.17,-12.27,28.0000,244.0000
1982-10-23 20:30:00 UTC,2445266.354167,28.7317,-95.2428,0109,-22.25,-8.99,24.0000,248.0000
1982-10-23 21:00:00 UTC,2445266.375000,28.7317,-95.2428,0109,-19.02,-6.18,20.0000,252.0000
1982-10-23 21:30:00 UTC,2445266.395833,28.7317,-95.2428,0109,-15.04,-5.47,16.0000,250.0000
1982-10-23 22:00:00 UTC,2445266.416667,28.7317,-95.2428,0109,-12.98,-5.24,14.0000,248.0000
1982-10-23 22:30:00 UTC,2445266.437500,28.7317,-95.2428,0109,-11.97,-5.08,13.0000,247.0000
1982-10-23 23:00:00 UTC,2445266.458333,28.7317,-95.2428,0109,-11.78,-5.49,13.0000,245.0000
1982-10-23 23:30:00 UTC,2445266.479167,28.7317,-95.2428,0109,-12.69,-5.92,14.0000,245.0000
1982-10-24 00:00:00 UTC,2445266.500000,28.7317,-95.2428,0109,-13.70,-6.10,15.0000,246.0000
1982-10-24 00:30:00 UTC,2445266.520833,28.7317,-95.2428,0109,-13.81,-5.86,15.0000,247.0000
1982-10-24 01:00:00 UTC,2445266.541667,28.7317,-95.2428,0109,-13.81,-5.86,15.0000,247.0000
1982-10-24 01:30:00 UTC,2445266.562500,28.7317,-95.2428,0109,-14.50,-6.76,16.0000,245.0000
1982-10-24 02:00:00 UTC,2445266.583333,28.7317,-95.2428,0109,-14.13,-7.51,16.0000,242.0000
1982-10-24 02:30:00 UTC,2445266.604167,28.7317,-95.2428,0109,-13.86,-8.00,16.0000,240.0000
1982-10-24 03:00:00 UTC,2445266.625000,28.7317,-95.2428,0109,-12.86,-7.73,15.0000,239.0000
1982-10-24 03:30:00 UTC,2445266.645833,28.7317,-95.2428,0109,-12.44,-8.39,15.0000,236.0000
1982-10-24 04:00:00 UTC,2445266.666667,28.7317,-95.2428,0109,-12.78,-9.63,16.0000,233.0000
1982-10-24 04:30:00 UTC,2445266.687500,28.7317,-95.2428,0109,-13.21,-10.70,17.0000,231.0000
1982-10-24 05:00:00 UTC,2445266.708333,28.7317,-95.2428,0109,-13.79,-11.57,18.0000,230.0000
1982-10-24 05:30:00 UTC,2445266.729167,28.7317,-95.2428,0109,-15.09,-13.12,20.0000,229.0000
1982-10-24 06:00:00 UTC,2445266.750000,28.7317,-95.2428,0109,-15.61,-14.05,21.0000,228.0000